Simultaneous Nadir Overpasses (SNOs) Predictions

Prediction of SNOs between FY3D and TERRA Satellite Orbit:

Table of predicted SNOs for the next 14.0 days since TLE Epoch: 4/30/2022
Index Date (FY3D) Time (FY3D) Lat,Lon (FY3D) SZA (FY3D ) Date (TERRA) Time (TERRA) Lat,Lon (TERRA) SZA (TERRA ) Distance(km) Time Diff (sec)
1 05/02/2022 16:21:28 71.30, -65.52 55.69 05/02/2022 16:22:08 71.31, -65.59 55.70 2.75 40
2 05/02/2022 17:12:12 -71.24, 101.89 124.39 05/02/2022 17:11:37 -71.25, 101.94 124.38 1.74 35
3 05/05/2022 07:48:35 -71.36,-117.38 125.02 05/05/2022 07:49:06 -71.35,-117.29 125.04 3.48 31
4 05/05/2022 08:39:19 71.25, 50.12 54.86 05/05/2022 08:38:33 71.25, 50.19 54.85 2.36 46
5 05/07/2022 23:15:40 71.33,-169.08 54.22 05/07/2022 23:16:01 71.33,-169.08 54.21 0.89 21
6 05/08/2022 00:06:23 -71.21, -1.56 125.92 05/08/2022 00:05:31 -71.21, -1.63 125.92 2.75 52
7 05/10/2022 13:52:13 71.99, -29.35 54.18 05/10/2022 13:53:21 71.87, -27.58 54.06 62.36 68
8 05/10/2022 14:42:46 -71.34, 139.15 126.48 05/10/2022 14:42:59 -71.32, 139.15 126.50 2.24 13
9 05/10/2022 15:33:30 71.24, -53.37 53.41 05/10/2022 15:32:26 71.21, -53.38 53.38 3.39 64
10 05/13/2022 05:19:13 -71.69, -80.54 126.80 05/13/2022 05:20:24 -71.58, -79.83 126.91 27.82 71
11 05/13/2022 06:09:52 71.34, 87.41 52.85 05/13/2022 06:09:53 71.36, 87.46 52.87 2.85 1
12 05/13/2022 07:00:36 -71.26,-105.14 127.24 05/13/2022 06:59:23 -71.25,-105.08 127.26 2.30 73



Historial Predications of SNOs between FY3D and TERRA
